This is the latest recevied weather packets stored in our database for station/object IK2ILW-6. If no packets are shown the sender has not sent any weather packets the latest 1 day(s).
| Time | Temp. | Humidity | Pressure | Rain* | Wind** | Luminosity | Snow |
|---|---|---|---|---|---|---|---|
| 1777979489 | 3.33° C | 92% | 1012.7 hPa | 7.87 mm | 4.47 m/s, 338° | 281 W/m² | - |
| 1777979192 | 3.33° C | 92% | 1012.9 hPa | 7.11 mm | 4.02 m/s, 273° | 260 W/m² | - |
| 1777978896 | 3.33° C | 91% | 1013 hPa | 7.11 mm | 4.47 m/s, 101° | 267 W/m² | - |
| 1777978601 | 3.33° C | 91% | 1013 hPa | 7.87 mm | 6.71 m/s, 63° | 229 W/m² | - |
| 1777978286 | 3.33° C | 91% | 1012.7 hPa | 7.11 mm | 7.15 m/s, 107° | 279 W/m² | - |
| 1777977990 | 2.78° C | 91% | 1012.8 hPa | 7.11 mm | 6.26 m/s, 64° | 232 W/m² | - |
| 1777977699 | 2.78° C | 91% | 1012.7 hPa | 8.89 mm | 8.49 m/s, 154° | 211 W/m² | - |
| 1777977383 | 2.78° C | 92% | 1012.6 hPa | 9.91 mm | 8.05 m/s, 90° | 192 W/m² | - |
| 1777977086 | 2.78° C | 91% | 1012.8 hPa | 8.89 mm | 5.81 m/s, 117° | 232 W/m² | - |
| 1777976790 | 2.78° C | 91% | 1013 hPa | 8.89 mm | 4.47 m/s, 40° | 199 W/m² | - |
| 1777976495 | 2.78° C | 90% | 1013.1 hPa | 8.89 mm | 5.36 m/s, 43° | 146 W/m² | - |
| 1777976201 | 3.33° C | 89% | 1012.9 hPa | 7.87 mm | 4.47 m/s, 274° | 125 W/m² | - |
| 1777975885 | 3.33° C | 90% | 1012.9 hPa | 7.87 mm | 4.47 m/s, 83° | 139 W/m² | - |
| 1777975589 | 3.33° C | 89% | 1012.6 hPa | 7.87 mm | 8.05 m/s, 94° | 193 W/m² | - |
| 1777975293 | 3.33° C | 90% | 1012.8 hPa | 7.87 mm | 5.36 m/s, 65° | 246 W/m² | - |
| 1777974998 | 3.33° C | 91% | 1012.7 hPa | 7.87 mm | 4.92 m/s, 320° | 250 W/m² | - |
| 1777974687 | 2.78° C | 90% | 1012.5 hPa | 9.91 mm | 5.81 m/s, 189° | 306 W/m² | - |
| 1777974095 | 2.22° C | 95% | 1012.7 hPa | 9.91 mm | 8.49 m/s, 80° | 218 W/m² | - |
| 1777973798 | 2.22° C | 94% | 1013 hPa | 9.91 mm | 4.47 m/s, 43° | 167 W/m² | - |
| 1777973502 | 2.22° C | 94% | 1013 hPa | 10.92 mm | 2.68 m/s, 245° | 171 W/m² | - |
| 1777973205 | 2.22° C | 94% | 1012.9 hPa | 10.92 mm | 3.13 m/s, 186° | 188 W/m² | - |
| 1777972889 | 2.22° C | 94% | 1013 hPa | 12.95 mm | 3.13 m/s, 347° | 211 W/m² | - |
| 1777972592 | 2.22° C | 93% | 1012.8 hPa | 13.97 mm | 4.47 m/s, 128° | 269 W/m² | - |
| 1777972295 | 2.22° C | 94% | 1012.6 hPa | 13.97 mm | 4.02 m/s, 145° | 239 W/m² | - |
| 1777971999 | 2.22° C | 93% | 1012.8 hPa | 14.99 mm | 4.02 m/s, 85° | 258 W/m² | - |
* Rain latest hour (hover to see other rain measurements)
** Current wind speed in m/s (hover to see current wind gust speed)